Year,Month,Day,Hour,Minute,Value (Times are PST for temperature in C)
2009,07,24,00,00,14.90
2009,07,24,00,01,14.90
2009,07,24,00,02,14.90
2009,07,24,00,03,14.90
2009,07,24,00,04,14.90
2009,07,24,00,05,14.90
2009,07,24,00,06,14.90
2009,07,24,00,07,14.90
2009,07,24,00,08,14.90
2009,07,24,00,09,14.90
2009,07,24,00,10,14.90
2009,07,24,00,11,14.90
2009,07,24,00,12,14.90
2009,07,24,00,13,14.90
2009,07,24,00,14,14.90
2009,07,24,00,15,14.90
2009,07,24,00,16,14.90
2009,07,24,00,17,14.90
2009,07,24,00,18,14.90
2009,07,24,00,19,14.90
2009,07,24,00,20,14.90
2009,07,24,00,21,14.90
2009,07,24,00,22,14.80
2009,07,24,00,23,14.80
2009,07,24,00,24,14.80
2009,07,24,00,25,14.80
2009,07,24,00,26,14.80
2009,07,24,00,27,14.80
2009,07,24,00,28,14.80
2009,07,24,00,29,14.80
2009,07,24,00,30,14.80
2009,07,24,00,31,14.80
2009,07,24,00,32,14.80
2009,07,24,00,33,14.80
2009,07,24,00,34,14.80
2009,07,24,00,35,14.80
2009,07,24,00,36,14.80
2009,07,24,00,37,14.80
2009,07,24,00,38,14.80
2009,07,24,00,39,14.80
2009,07,24,00,40,14.80
2009,07,24,00,41,14.80
2009,07,24,00,42,14.80
2009,07,24,00,43,14.80
2009,07,24,00,44,14.80
2009,07,24,00,45,14.80
2009,07,24,00,46,14.80
2009,07,24,00,47,14.80
2009,07,24,00,48,14.80
2009,07,24,00,49,14.80
2009,07,24,00,50,14.80
2009,07,24,00,51,14.80
2009,07,24,00,52,14.80
2009,07,24,00,53,14.80
2009,07,24,00,54,14.80
2009,07,24,00,55,14.80
2009,07,24,00,56,14.80
2009,07,24,00,57,14.80
2009,07,24,00,58,14.80
2009,07,24,00,59,14.80
2009,07,24,01,00,14.80
2009,07,24,01,01,14.80
2009,07,24,01,02,14.80
2009,07,24,01,03,14.80
2009,07,24,01,04,14.80
2009,07,24,01,05,14.80
2009,07,24,01,06,14.80
2009,07,24,01,07,14.80
2009,07,24,01,08,14.80
2009,07,24,01,09,14.80
2009,07,24,01,10,14.80
2009,07,24,01,11,14.80
2009,07,24,01,12,14.80
2009,07,24,01,13,14.80
2009,07,24,01,14,14.80
2009,07,24,01,15,14.80
2009,07,24,01,16,14.80
2009,07,24,01,17,14.80
2009,07,24,01,18,14.80
2009,07,24,01,19,14.80
2009,07,24,01,20,14.90
2009,07,24,01,21,14.90
2009,07,24,01,22,14.90
2009,07,24,01,23,15.00
2009,07,24,01,24,15.00
2009,07,24,01,25,15.00
2009,07,24,01,26,15.00
2009,07,24,01,27,15.00
2009,07,24,01,28,15.00
2009,07,24,01,29,15.00
2009,07,24,01,30,15.00
2009,07,24,01,31,15.00
2009,07,24,01,32,15.00
2009,07,24,01,33,15.00
2009,07,24,01,34,15.00
2009,07,24,01,35,14.90
2009,07,24,01,36,14.90
2009,07,24,01,37,14.90
2009,07,24,01,38,14.90
2009,07,24,01,39,14.90
2009,07,24,01,40,14.90
2009,07,24,01,41,14.90
2009,07,24,01,42,14.90
2009,07,24,01,43,14.90
2009,07,24,01,44,14.80
2009,07,24,01,45,14.80
2009,07,24,01,46,14.80
2009,07,24,01,47,14.80
2009,07,24,01,48,14.80
2009,07,24,01,49,14.80
2009,07,24,01,50,14.80
2009,07,24,01,51,14.80
2009,07,24,01,52,14.80
2009,07,24,01,53,14.80
2009,07,24,01,54,14.70
2009,07,24,01,55,14.70
2009,07,24,01,56,14.70
2009,07,24,01,57,14.70
2009,07,24,01,58,14.70
2009,07,24,01,59,14.60
2009,07,24,02,00,14.60
2009,07,24,02,01,14.60
2009,07,24,02,02,14.60
2009,07,24,02,03,14.60
2009,07,24,02,04,14.60
2009,07,24,02,05,14.60
2009,07,24,02,06,14.50
2009,07,24,02,07,14.50
2009,07,24,02,08,14.50
2009,07,24,02,09,14.50
2009,07,24,02,10,14.50
2009,07,24,02,11,14.40
2009,07,24,02,12,14.40
2009,07,24,02,13,14.40
2009,07,24,02,14,14.40
2009,07,24,02,15,14.40
2009,07,24,02,16,14.30
2009,07,24,02,17,14.30
2009,07,24,02,18,14.30
2009,07,24,02,19,14.30
2009,07,24,02,20,14.30
2009,07,24,02,21,14.30
2009,07,24,02,22,14.30
2009,07,24,02,23,14.30
2009,07,24,02,24,14.30
2009,07,24,02,25,14.20
2009,07,24,02,26,14.20
2009,07,24,02,27,14.20
2009,07,24,02,28,14.20
2009,07,24,02,29,14.20
2009,07,24,02,30,14.20
2009,07,24,02,31,14.20
2009,07,24,02,32,14.20
2009,07,24,02,33,14.20
2009,07,24,02,34,14.20
2009,07,24,02,35,14.10
2009,07,24,02,36,14.10
2009,07,24,02,37,14.10
2009,07,24,02,38,14.10
2009,07,24,02,39,14.10
2009,07,24,02,40,14.00
2009,07,24,02,41,14.00
2009,07,24,02,42,14.00
2009,07,24,02,43,13.90
2009,07,24,02,44,13.90
2009,07,24,02,45,13.90
2009,07,24,02,46,13.90
2009,07,24,02,47,13.90
2009,07,24,02,48,13.80
2009,07,24,02,49,13.80
2009,07,24,02,50,13.80
2009,07,24,02,51,13.80
2009,07,24,02,52,13.80
2009,07,24,02,53,13.80
2009,07,24,02,54,13.80
2009,07,24,02,55,13.80
2009,07,24,02,56,13.80
2009,07,24,02,57,13.80
2009,07,24,02,58,13.70
2009,07,24,02,59,13.70
2009,07,24,03,00,13.70
2009,07,24,03,01,13.70
2009,07,24,03,02,13.70
2009,07,24,03,03,13.70
2009,07,24,03,04,13.60
2009,07,24,03,05,13.60
2009,07,24,03,06,13.60
2009,07,24,03,07,13.60
2009,07,24,03,08,13.50
2009,07,24,03,09,13.50
2009,07,24,03,10,13.50
2009,07,24,03,11,13.50
2009,07,24,03,12,13.50
2009,07,24,03,13,13.40
2009,07,24,03,14,13.40
2009,07,24,03,15,13.40
2009,07,24,03,16,13.40
2009,07,24,03,17,13.30
2009,07,24,03,18,13.30
2009,07,24,03,19,13.30
2009,07,24,03,20,13.30
2009,07,24,03,21,13.30
2009,07,24,03,22,13.30
2009,07,24,03,23,13.30
2009,07,24,03,24,13.20
2009,07,24,03,25,13.20
2009,07,24,03,26,13.20
2009,07,24,03,27,13.10
2009,07,24,03,28,13.10
2009,07,24,03,29,13.10
2009,07,24,03,30,13.10
2009,07,24,03,31,13.00
2009,07,24,03,32,13.00
2009,07,24,03,33,13.00
2009,07,24,03,34,13.00
2009,07,24,03,35,13.00
2009,07,24,03,36,12.90
2009,07,24,03,37,12.90
2009,07,24,03,38,12.90
2009,07,24,03,39,12.90
2009,07,24,03,40,12.90
2009,07,24,03,41,12.80
2009,07,24,03,42,12.80
2009,07,24,03,43,12.80
2009,07,24,03,44,12.80
2009,07,24,03,45,12.80
2009,07,24,03,46,12.80
2009,07,24,03,47,12.80
2009,07,24,03,48,12.80
2009,07,24,03,49,12.80
2009,07,24,03,50,12.80
2009,07,24,03,51,12.80
2009,07,24,03,52,12.80
2009,07,24,03,53,12.80
2009,07,24,03,54,12.80
2009,07,24,03,55,12.80
2009,07,24,03,56,12.80
2009,07,24,03,57,12.70
2009,07,24,03,58,12.70
2009,07,24,03,59,12.70
2009,07,24,04,00,12.70
2009,07,24,04,01,12.70
2009,07,24,04,02,12.60
2009,07,24,04,03,12.60
2009,07,24,04,04,12.60
2009,07,24,04,05,12.60
2009,07,24,04,06,12.60
2009,07,24,04,07,12.60
2009,07,24,04,08,12.50
2009,07,24,04,09,12.50
2009,07,24,04,10,12.50
2009,07,24,04,11,12.50
2009,07,24,04,12,12.50
2009,07,24,04,13,12.50
2009,07,24,04,14,12.50
2009,07,24,04,15,12.50
2009,07,24,04,16,12.50
2009,07,24,04,17,12.50
2009,07,24,04,18,12.50
2009,07,24,04,19,12.50
2009,07,24,04,20,12.50
2009,07,24,04,21,12.40
2009,07,24,04,22,12.40
2009,07,24,04,23,12.40
2009,07,24,04,24,12.40
2009,07,24,04,25,12.40
2009,07,24,04,26,12.40
2009,07,24,04,27,12.40
2009,07,24,04,28,12.30
2009,07,24,04,29,12.30
2009,07,24,04,30,12.30
2009,07,24,04,31,12.30
2009,07,24,04,32,12.30
2009,07,24,04,33,12.30
2009,07,24,04,34,12.30
2009,07,24,04,35,12.30
2009,07,24,04,36,12.30
2009,07,24,04,37,12.30
2009,07,24,04,38,12.30
2009,07,24,04,39,12.30
2009,07,24,04,40,12.30
2009,07,24,04,41,12.30
2009,07,24,04,42,12.30
2009,07,24,04,43,12.30
2009,07,24,04,44,12.30
2009,07,24,04,45,12.30
2009,07,24,04,46,12.20
2009,07,24,04,47,12.20
2009,07,24,04,48,12.20
2009,07,24,04,49,12.20
2009,07,24,04,50,12.20
2009,07,24,04,51,12.20
2009,07,24,04,52,12.10
2009,07,24,04,53,12.10
2009,07,24,04,54,12.10
2009,07,24,04,55,12.10
2009,07,24,04,56,12.10
2009,07,24,04,57,12.10
2009,07,24,04,58,12.10
2009,07,24,04,59,12.10
2009,07,24,05,00,12.10
2009,07,24,05,01,12.10
2009,07,24,05,02,12.10
2009,07,24,05,03,12.10
2009,07,24,05,04,12.10
2009,07,24,05,05,12.10
2009,07,24,05,06,12.10
2009,07,24,05,07,12.10
2009,07,24,05,08,12.10
2009,07,24,05,09,12.10
2009,07,24,05,10,12.10
2009,07,24,05,11,12.10
2009,07,24,05,12,12.10
2009,07,24,05,13,12.10
2009,07,24,05,14,12.00
2009,07,24,05,15,12.00
2009,07,24,05,16,12.00
2009,07,24,05,17,12.00
2009,07,24,05,18,12.00
2009,07,24,05,19,12.00
2009,07,24,05,20,11.90
2009,07,24,05,21,11.90
2009,07,24,05,22,11.90
2009,07,24,05,23,11.90
2009,07,24,05,24,11.80
2009,07,24,05,25,11.80
2009,07,24,05,26,11.80
2009,07,24,05,27,11.80
2009,07,24,05,28,11.80
2009,07,24,05,29,11.80
2009,07,24,05,30,11.80
2009,07,24,05,31,11.80
2009,07,24,05,32,11.80
2009,07,24,05,33,11.80
2009,07,24,05,34,11.80
2009,07,24,05,35,11.80
2009,07,24,05,36,11.80
2009,07,24,05,37,11.80
2009,07,24,05,38,11.80
2009,07,24,05,39,11.80
2009,07,24,05,40,11.80
2009,07,24,05,41,11.80
2009,07,24,05,42,11.80
2009,07,24,05,43,11.80
2009,07,24,05,44,11.80
2009,07,24,05,45,11.90
2009,07,24,05,46,11.90
2009,07,24,05,47,11.90
2009,07,24,05,48,11.90
2009,07,24,05,49,11.90
2009,07,24,05,50,11.90
2009,07,24,05,51,11.90
2009,07,24,05,52,11.90
2009,07,24,05,53,11.90
2009,07,24,05,54,11.90
2009,07,24,05,55,11.90
2009,07,24,05,56,12.00
2009,07,24,05,57,12.00
2009,07,24,05,58,12.00
2009,07,24,05,59,12.00
2009,07,24,06,00,12.00
2009,07,24,06,01,12.00
2009,07,24,06,02,12.10
2009,07,24,06,03,12.10
2009,07,24,06,04,12.10
2009,07,24,06,05,12.10
2009,07,24,06,06,12.10
2009,07,24,06,07,12.10
2009,07,24,06,08,12.10
2009,07,24,06,09,12.10
2009,07,24,06,10,12.20
2009,07,24,06,11,12.20
2009,07,24,06,12,12.20
2009,07,24,06,13,12.20
2009,07,24,06,14,12.30
2009,07,24,06,15,12.30
2009,07,24,06,16,12.30
2009,07,24,06,17,12.30
2009,07,24,06,18,12.30
2009,07,24,06,19,12.30
2009,07,24,06,20,12.30
2009,07,24,06,21,12.30
2009,07,24,06,22,12.30
2009,07,24,06,23,12.30
2009,07,24,06,24,12.30
2009,07,24,06,25,12.30
2009,07,24,06,26,12.30
2009,07,24,06,27,12.30
2009,07,24,06,28,12.30
2009,07,24,06,29,12.30
2009,07,24,06,30,12.30
2009,07,24,06,31,12.30
2009,07,24,06,32,12.30
2009,07,24,06,33,12.30
2009,07,24,06,34,12.30
2009,07,24,06,35,12.30
2009,07,24,06,36,12.40
2009,07,24,06,37,12.40
2009,07,24,06,38,12.40
2009,07,24,06,39,12.50
2009,07,24,06,40,12.50
2009,07,24,06,41,12.50
2009,07,24,06,42,12.60
2009,07,24,06,43,12.60
2009,07,24,06,44,12.60
2009,07,24,06,45,12.70
2009,07,24,06,46,12.70
2009,07,24,06,47,12.70
2009,07,24,06,48,12.80
2009,07,24,06,49,12.80
2009,07,24,06,50,12.80
2009,07,24,06,51,12.90
2009,07,24,06,52,12.90
2009,07,24,06,53,13.00
2009,07,24,06,54,13.00
2009,07,24,06,55,13.10
2009,07,24,06,56,13.10
2009,07,24,06,57,13.10
2009,07,24,06,58,13.20
2009,07,24,06,59,13.20
2009,07,24,07,00,13.20
2009,07,24,07,01,13.20
2009,07,24,07,02,13.20
2009,07,24,07,03,13.20
2009,07,24,07,04,13.30
2009,07,24,07,05,13.30
2009,07,24,07,06,13.30
2009,07,24,07,07,13.40
2009,07,24,07,08,13.40
2009,07,24,07,09,13.50
2009,07,24,07,10,13.50
2009,07,24,07,11,13.60
2009,07,24,07,12,13.60
2009,07,24,07,13,13.60
2009,07,24,07,14,13.70
2009,07,24,07,15,13.70
2009,07,24,07,16,13.70
2009,07,24,07,17,13.80
2009,07,24,07,18,13.80
2009,07,24,07,19,13.90
2009,07,24,07,20,13.90
2009,07,24,07,21,13.90
2009,07,24,07,22,13.90
2009,07,24,07,23,14.00
2009,07,24,07,24,14.00
2009,07,24,07,25,14.10
2009,07,24,07,26,14.10
2009,07,24,07,27,14.10
2009,07,24,07,28,14.20
2009,07,24,07,29,14.20
2009,07,24,07,30,14.20
2009,07,24,07,31,14.20
2009,07,24,07,32,14.30
2009,07,24,07,33,14.30
2009,07,24,07,34,14.40
2009,07,24,07,35,14.40
2009,07,24,07,36,14.50
2009,07,24,07,37,14.50
2009,07,24,07,38,14.60
2009,07,24,07,39,14.60
2009,07,24,07,40,14.70
2009,07,24,07,41,14.70
2009,07,24,07,42,14.80
2009,07,24,07,43,14.80
2009,07,24,07,44,14.80
2009,07,24,07,45,14.90
2009,07,24,07,46,14.90
2009,07,24,07,47,15.00
2009,07,24,07,48,15.00
2009,07,24,07,49,15.00
2009,07,24,07,50,15.00
2009,07,24,07,51,15.00
2009,07,24,07,52,15.00
2009,07,24,07,53,15.10
2009,07,24,07,54,15.10
2009,07,24,07,55,15.10
2009,07,24,07,56,15.20
2009,07,24,07,57,15.20
2009,07,24,07,58,15.30
2009,07,24,07,59,15.30
2009,07,24,08,00,15.30
2009,07,24,08,01,15.30
2009,07,24,08,02,15.30
2009,07,24,08,03,15.30
2009,07,24,08,04,15.40
2009,07,24,08,05,15.40
2009,07,24,08,06,15.40
2009,07,24,08,07,15.50
2009,07,24,08,08,15.60
2009,07,24,08,09,15.60
2009,07,24,08,10,15.60
2009,07,24,08,11,15.70
2009,07,24,08,12,15.70
2009,07,24,08,13,15.70
2009,07,24,08,14,15.80
2009,07,24,08,15,15.90
2009,07,24,08,16,16.00
2009,07,24,08,17,16.10
2009,07,24,08,18,16.10
2009,07,24,08,19,16.10
2009,07,24,08,20,16.10
2009,07,24,08,21,16.10
2009,07,24,08,22,16.10
2009,07,24,08,23,16.10
2009,07,24,08,24,16.10
2009,07,24,08,25,16.20
2009,07,24,08,26,16.30
2009,07,24,08,27,16.40
2009,07,24,08,28,16.50
2009,07,24,08,29,16.60
2009,07,24,08,30,16.60
2009,07,24,08,31,16.70
2009,07,24,08,32,16.70
2009,07,24,08,33,16.70
2009,07,24,08,34,16.70
2009,07,24,08,35,16.70
2009,07,24,08,36,16.70
2009,07,24,08,37,16.70
2009,07,24,08,38,16.70
2009,07,24,08,39,16.70
2009,07,24,08,40,16.70
2009,07,24,08,41,16.70
2009,07,24,08,42,16.80
2009,07,24,08,43,16.80
2009,07,24,08,44,16.90
2009,07,24,08,45,17.00
2009,07,24,08,46,17.20
2009,07,24,08,47,17.30
2009,07,24,08,48,17.40
2009,07,24,08,49,17.50
2009,07,24,08,50,17.60
2009,07,24,08,51,17.70
2009,07,24,08,52,17.80
2009,07,24,08,53,17.90
2009,07,24,08,54,17.90
2009,07,24,08,55,18.00
2009,07,24,08,56,18.10
2009,07,24,08,57,18.20
2009,07,24,08,58,18.20
2009,07,24,08,59,18.20
2009,07,24,09,00,18.20
2009,07,24,09,01,18.30
2009,07,24,09,02,18.30
2009,07,24,09,03,18.30
2009,07,24,09,04,18.30
2009,07,24,09,05,18.30
2009,07,24,09,06,18.30
2009,07,24,09,07,18.30
2009,07,24,09,08,18.30
2009,07,24,09,09,18.20
2009,07,24,09,10,18.20
2009,07,24,09,11,18.20
2009,07,24,09,12,18.20
2009,07,24,09,13,18.20
2009,07,24,09,14,18.20
2009,07,24,09,15,18.20
2009,07,24,09,16,18.20
2009,07,24,09,17,18.20
2009,07,24,09,18,18.20
2009,07,24,09,19,18.20
2009,07,24,09,20,18.20
2009,07,24,09,21,18.20
2009,07,24,09,22,18.30
2009,07,24,09,23,18.30
2009,07,24,09,24,18.30
2009,07,24,09,25,18.30
2009,07,24,09,26,18.30
2009,07,24,09,27,18.20
2009,07,24,09,28,18.30
2009,07,24,09,29,18.30
2009,07,24,09,30,18.40
2009,07,24,09,31,18.50
2009,07,24,09,32,18.60
2009,07,24,09,33,18.60
2009,07,24,09,34,18.70
2009,07,24,09,35,18.70
2009,07,24,09,36,18.70
2009,07,24,09,37,18.60
2009,07,24,09,38,18.30
2009,07,24,09,39,18.10
2009,07,24,09,40,18.00
2009,07,24,09,41,17.80
2009,07,24,09,42,17.70
2009,07,24,09,43,17.60
2009,07,24,09,44,17.60
2009,07,24,09,45,17.60
2009,07,24,09,46,17.60
2009,07,24,09,47,17.60
2009,07,24,09,48,17.60
2009,07,24,09,49,17.60
2009,07,24,09,50,17.60
2009,07,24,09,51,17.50
2009,07,24,09,52,17.50
2009,07,24,09,53,17.50
2009,07,24,09,54,17.50
2009,07,24,09,55,17.40
2009,07,24,09,56,17.40
2009,07,24,09,57,17.50
2009,07,24,09,58,17.50
2009,07,24,09,59,17.60
2009,07,24,10,00,17.60
2009,07,24,10,01,17.60
2009,07,24,10,02,17.70
2009,07,24,10,03,17.70
2009,07,24,10,04,17.90
2009,07,24,10,05,18.00
2009,07,24,10,06,18.10
2009,07,24,10,07,18.20
2009,07,24,10,08,18.20
2009,07,24,10,09,18.00
2009,07,24,10,10,17.90
2009,07,24,10,11,17.80
2009,07,24,10,12,17.70
2009,07,24,10,13,17.60
2009,07,24,10,14,17.80
2009,07,24,10,15,18.00
2009,07,24,10,16,18.20
2009,07,24,10,17,18.40
2009,07,24,10,18,18.60
2009,07,24,10,19,18.90
2009,07,24,10,20,19.10
2009,07,24,10,21,19.30
2009,07,24,10,22,19.50
2009,07,24,10,23,19.70
2009,07,24,10,24,19.80
2009,07,24,10,25,20.00
2009,07,24,10,26,20.20
2009,07,24,10,27,20.30
2009,07,24,10,28,20.50
2009,07,24,10,29,20.50
2009,07,24,10,30,20.60
2009,07,24,10,31,20.60
2009,07,24,10,32,20.60
2009,07,24,10,33,20.50
2009,07,24,10,34,20.40
2009,07,24,10,35,20.20
2009,07,24,10,36,20.10
2009,07,24,10,37,20.10
2009,07,24,10,38,20.10
2009,07,24,10,39,20.10
2009,07,24,10,40,20.10
2009,07,24,10,41,20.10
2009,07,24,10,42,20.00
2009,07,24,10,43,19.90
2009,07,24,10,44,19.90
2009,07,24,10,45,19.90
2009,07,24,10,46,19.80
2009,07,24,10,47,19.80
2009,07,24,10,48,19.80
2009,07,24,10,49,19.80
2009,07,24,10,50,19.80
2009,07,24,10,51,19.80
2009,07,24,10,52,19.90
2009,07,24,10,53,19.80
2009,07,24,10,54,19.80
2009,07,24,10,55,19.80
2009,07,24,10,56,19.70
2009,07,24,10,57,19.70
2009,07,24,10,58,19.60
2009,07,24,10,59,19.60
2009,07,24,11,00,19.60
2009,07,24,11,01,19.60
2009,07,24,11,02,19.70
2009,07,24,11,03,19.70
2009,07,24,11,04,19.70
2009,07,24,11,05,19.70
2009,07,24,11,06,19.30
2009,07,24,11,07,19.00
2009,07,24,11,08,18.80
2009,07,24,11,09,18.50
2009,07,24,11,10,18.30
2009,07,24,11,11,18.20
2009,07,24,11,12,18.10
2009,07,24,11,13,18.10
2009,07,24,11,14,18.10
2009,07,24,11,15,18.10
2009,07,24,11,16,18.20
2009,07,24,11,17,18.20
2009,07,24,11,18,18.50
2009,07,24,11,19,18.60
2009,07,24,11,20,18.70
2009,07,24,11,21,18.80
2009,07,24,11,22,18.90
2009,07,24,11,23,18.90
2009,07,24,11,24,18.90
2009,07,24,11,25,19.10
2009,07,24,11,26,19.20
2009,07,24,11,27,19.40
2009,07,24,11,28,19.60
2009,07,24,11,29,19.80
2009,07,24,11,30,19.90
2009,07,24,11,31,20.10
2009,07,24,11,32,20.20
2009,07,24,11,33,20.30
2009,07,24,11,34,20.50
2009,07,24,11,35,20.60
2009,07,24,11,36,20.70
2009,07,24,11,37,20.70
2009,07,24,11,38,20.80
2009,07,24,11,39,20.90
2009,07,24,11,40,21.00
2009,07,24,11,41,21.10
2009,07,24,11,42,21.20
2009,07,24,11,43,21.30
2009,07,24,11,44,21.30
2009,07,24,11,45,21.40
2009,07,24,11,46,21.60
2009,07,24,11,47,21.60
2009,07,24,11,48,21.60
2009,07,24,11,49,21.60
2009,07,24,11,50,21.70
2009,07,24,11,51,21.80
2009,07,24,11,52,21.80
2009,07,24,11,53,21.80
2009,07,24,11,54,21.80
2009,07,24,11,55,21.70
2009,07,24,11,56,21.60
2009,07,24,11,57,21.40
2009,07,24,11,58,21.30
2009,07,24,11,59,21.30
2009,07,24,12,00,21.30
2009,07,24,12,01,21.30
2009,07,24,12,02,21.30
2009,07,24,12,03,21.30
2009,07,24,12,04,21.30
2009,07,24,12,05,21.30
2009,07,24,12,06,21.30
2009,07,24,12,07,21.30
2009,07,24,12,08,21.30
2009,07,24,12,09,21.30
2009,07,24,12,10,21.40
2009,07,24,12,11,21.40
2009,07,24,12,12,21.40
2009,07,24,12,13,21.40
2009,07,24,12,14,21.40
2009,07,24,12,15,21.40
2009,07,24,12,16,21.40
2009,07,24,12,17,21.40
2009,07,24,12,18,21.40
2009,07,24,12,19,21.60
2009,07,24,12,20,21.60
2009,07,24,12,21,21.60
2009,07,24,12,22,21.60
2009,07,24,12,23,21.70
2009,07,24,12,24,21.80
2009,07,24,12,25,21.90
2009,07,24,12,26,22.00
2009,07,24,12,27,22.00
2009,07,24,12,28,21.80
2009,07,24,12,29,21.70
2009,07,24,12,30,21.70
2009,07,24,12,31,21.70
2009,07,24,12,32,21.70
2009,07,24,12,33,21.70
2009,07,24,12,34,21.70
2009,07,24,12,35,21.80
2009,07,24,12,36,21.90
2009,07,24,12,37,22.00
2009,07,24,12,38,22.00
2009,07,24,12,39,22.10
2009,07,24,12,40,22.20
2009,07,24,12,41,22.20
2009,07,24,12,42,22.30
2009,07,24,12,43,22.30
2009,07,24,12,44,22.40
2009,07,24,12,45,22.40
2009,07,24,12,46,22.30
2009,07,24,12,47,22.30
2009,07,24,12,48,22.30
2009,07,24,12,49,22.30
2009,07,24,12,50,22.50
2009,07,24,12,51,22.30
2009,07,24,12,52,22.00
2009,07,24,12,53,21.80
2009,07,24,12,54,21.70
2009,07,24,12,55,21.70
2009,07,24,12,56,21.80
2009,07,24,12,57,21.60
2009,07,24,12,58,21.30
2009,07,24,12,59,21.10
2009,07,24,13,00,21.00
2009,07,24,13,01,21.00
2009,07,24,13,02,21.10
2009,07,24,13,03,21.30
2009,07,24,13,04,21.40
2009,07,24,13,05,21.60
2009,07,24,13,06,21.80
2009,07,24,13,07,22.00
2009,07,24,13,08,22.10
2009,07,24,13,09,22.20
2009,07,24,13,10,22.10
2009,07,24,13,11,21.80
2009,07,24,13,12,21.60
2009,07,24,13,13,21.50
2009,07,24,13,14,21.40
2009,07,24,13,15,21.50
2009,07,24,13,16,21.60
2009,07,24,13,17,21.70
2009,07,24,13,18,21.90
2009,07,24,13,19,22.00
2009,07,24,13,20,22.20
2009,07,24,13,21,22.40
2009,07,24,13,22,22.60
2009,07,24,13,23,22.80
2009,07,24,13,24,23.00
2009,07,24,13,25,23.10
2009,07,24,13,26,23.30
2009,07,24,13,27,23.30
2009,07,24,13,28,23.40
2009,07,24,13,29,23.30
2009,07,24,13,30,23.40
2009,07,24,13,31,23.40
2009,07,24,13,32,23.40
2009,07,24,13,33,23.40
2009,07,24,13,34,23.40
2009,07,24,13,35,23.40
2009,07,24,13,36,23.50
2009,07,24,13,37,23.30
2009,07,24,13,38,22.80
2009,07,24,13,39,22.20
2009,07,24,13,40,21.80
2009,07,24,13,41,21.50
2009,07,24,13,42,21.20
2009,07,24,13,43,20.80
2009,07,24,13,44,20.30
2009,07,24,13,45,20.10
2009,07,24,13,46,20.10
2009,07,24,13,47,20.10
2009,07,24,13,48,20.20
2009,07,24,13,49,20.00
2009,07,24,13,50,19.50
2009,07,24,13,51,19.10
2009,07,24,13,52,18.70
2009,07,24,13,53,18.60
2009,07,24,13,54,18.70
2009,07,24,13,55,18.70
2009,07,24,13,56,18.70
2009,07,24,13,57,18.70
2009,07,24,13,58,18.60
2009,07,24,13,59,18.60
2009,07,24,14,00,18.60
2009,07,24,14,01,18.50
2009,07,24,14,02,18.50
2009,07,24,14,03,18.40
2009,07,24,14,04,18.50
2009,07,24,14,05,18.60
2009,07,24,14,06,18.60
2009,07,24,14,07,18.60
2009,07,24,14,08,18.60
2009,07,24,14,09,18.60
2009,07,24,14,10,18.60
2009,07,24,14,11,18.50
2009,07,24,14,12,18.50
2009,07,24,14,13,18.50
2009,07,24,14,14,18.40
2009,07,24,14,15,18.50
2009,07,24,14,16,18.70
2009,07,24,14,17,18.90
2009,07,24,14,18,19.00
2009,07,24,14,19,19.10
2009,07,24,14,20,19.30
2009,07,24,14,21,19.40
2009,07,24,14,22,19.50
2009,07,24,14,23,19.70
2009,07,24,14,24,19.90
2009,07,24,14,25,19.90
2009,07,24,14,26,20.00
2009,07,24,14,27,20.10
2009,07,24,14,28,20.20
2009,07,24,14,29,20.20
2009,07,24,14,30,20.20
2009,07,24,14,31,20.20
2009,07,24,14,32,20.10
2009,07,24,14,33,20.10
2009,07,24,14,34,19.90
2009,07,24,14,35,19.90
2009,07,24,14,36,19.90
2009,07,24,14,37,19.90
2009,07,24,14,38,19.90
2009,07,24,14,39,19.90
2009,07,24,14,40,20.00
2009,07,24,14,41,20.10
2009,07,24,14,42,20.10
2009,07,24,14,43,20.00
2009,07,24,14,44,19.90
2009,07,24,14,45,20.10
2009,07,24,14,46,20.10
2009,07,24,14,47,20.10
2009,07,24,14,48,20.10
2009,07,24,14,49,20.20
2009,07,24,14,50,20.20
2009,07,24,14,51,20.20
2009,07,24,14,52,20.00
2009,07,24,14,53,19.70
2009,07,24,14,54,19.60
2009,07,24,14,55,19.50
2009,07,24,14,56,19.40
2009,07,24,14,57,19.40
2009,07,24,14,58,19.20
2009,07,24,14,59,19.00
2009,07,24,15,00,18.70
2009,07,24,15,01,18.50
2009,07,24,15,02,18.30
2009,07,24,15,03,18.30
2009,07,24,15,04,18.30
2009,07,24,15,05,18.20
2009,07,24,15,06,18.10
2009,07,24,15,07,18.10
2009,07,24,15,08,18.10
2009,07,24,15,09,18.10
2009,07,24,15,10,18.10
2009,07,24,15,11,18.20
2009,07,24,15,12,18.20
2009,07,24,15,13,18.20
2009,07,24,15,14,18.20
2009,07,24,15,15,18.20
2009,07,24,15,16,18.10
2009,07,24,15,17,18.00
2009,07,24,15,18,17.90
2009,07,24,15,19,17.80
2009,07,24,15,20,17.80
2009,07,24,15,21,18.00
2009,07,24,15,22,18.20
2009,07,24,15,23,18.20
2009,07,24,15,24,18.20
2009,07,24,15,25,18.30
2009,07,24,15,26,18.30
2009,07,24,15,27,18.30
2009,07,24,15,28,18.20
2009,07,24,15,29,18.30
2009,07,24,15,30,18.30
2009,07,24,15,31,18.40
2009,07,24,15,32,18.40
2009,07,24,15,33,18.40
2009,07,24,15,34,18.40
2009,07,24,15,35,18.30
2009,07,24,15,36,18.40
2009,07,24,15,37,18.50
2009,07,24,15,38,18.60
2009,07,24,15,39,18.70
2009,07,24,15,40,18.80
2009,07,24,15,41,18.90
2009,07,24,15,42,18.90
2009,07,24,15,43,18.90
2009,07,24,15,44,18.80
2009,07,24,15,45,18.80
2009,07,24,15,46,18.60
2009,07,24,15,47,18.50
2009,07,24,15,48,18.60
2009,07,24,15,49,18.90
2009,07,24,15,50,19.00
2009,07,24,15,51,19.10
2009,07,24,15,52,19.10
2009,07,24,15,53,19.10
2009,07,24,15,54,19.10
2009,07,24,15,55,19.30
2009,07,24,15,56,19.40
2009,07,24,15,57,19.50
2009,07,24,15,58,19.70
2009,07,24,15,59,19.90
2009,07,24,16,00,20.10
2009,07,24,16,01,20.20
2009,07,24,16,02,20.20
2009,07,24,16,03,20.20
2009,07,24,16,04,20.20
2009,07,24,16,05,20.40
2009,07,24,16,06,20.60
2009,07,24,16,07,20.80
2009,07,24,16,08,21.00
2009,07,24,16,09,21.10
2009,07,24,16,10,21.20
2009,07,24,16,11,21.30
2009,07,24,16,12,21.40
2009,07,24,16,13,21.40
2009,07,24,16,14,21.30
2009,07,24,16,15,21.20
2009,07,24,16,16,21.20
2009,07,24,16,17,21.30
2009,07,24,16,18,21.30
2009,07,24,16,19,21.30
2009,07,24,16,20,21.20
2009,07,24,16,21,21.20
2009,07,24,16,22,21.30
2009,07,24,16,23,21.30
2009,07,24,16,24,21.30
2009,07,24,16,25,21.20
2009,07,24,16,26,21.30
2009,07,24,16,27,21.30
2009,07,24,16,28,21.50
2009,07,24,16,29,21.60
2009,07,24,16,30,21.60
2009,07,24,16,31,21.60
2009,07,24,16,32,21.70
2009,07,24,16,33,21.90
2009,07,24,16,34,22.00
2009,07,24,16,35,22.10
2009,07,24,16,36,22.30
2009,07,24,16,37,22.50
2009,07,24,16,38,22.60
2009,07,24,16,39,22.60
2009,07,24,16,40,22.70
2009,07,24,16,41,22.70
2009,07,24,16,42,22.70
2009,07,24,16,43,22.60
2009,07,24,16,44,22.60
2009,07,24,16,45,22.60
2009,07,24,16,46,22.60
2009,07,24,16,47,22.60
2009,07,24,16,48,22.70
2009,07,24,16,49,22.70
2009,07,24,16,50,22.60
2009,07,24,16,51,22.60
2009,07,24,16,52,22.50
2009,07,24,16,53,22.60
2009,07,24,16,54,22.60
2009,07,24,16,55,22.50
2009,07,24,16,56,22.60
2009,07,24,16,57,22.70
2009,07,24,16,58,22.70
2009,07,24,16,59,22.70
2009,07,24,17,00,22.80
2009,07,24,17,01,22.80
2009,07,24,17,02,22.70
2009,07,24,17,03,22.70
2009,07,24,17,04,22.70
2009,07,24,17,05,22.70
2009,07,24,17,06,22.70
2009,07,24,17,07,22.80
2009,07,24,17,08,22.90
2009,07,24,17,09,22.90
2009,07,24,17,10,22.90
2009,07,24,17,11,22.90
2009,07,24,17,12,22.90
2009,07,24,17,13,22.90
2009,07,24,17,14,22.80
2009,07,24,17,15,22.70
2009,07,24,17,16,22.60
2009,07,24,17,17,22.60
2009,07,24,17,18,22.30
2009,07,24,17,19,22.20